status,avgMeasuredTime,avgSpeed,extID,medianMeasuredTime,TIMESTAMP,vehicleCount,_id,REPORT_ID
OK,38,51,766,38,2014-08-01T07:55:00,6,20746490,201345
OK,38,51,766,38,2014-08-01T08:00:00,4,20746821,201345
OK,40,49,766,40,2014-08-01T08:05:00,3,20747270,201345
OK,41,48,766,41,2014-08-01T08:10:00,2,20747643,201345
OK,41,48,766,41,2014-08-01T08:15:00,4,20748092,201345
OK,39,50,766,39,2014-08-01T08:20:00,8,20748541,201345
OK,39,50,766,39,2014-08-01T08:25:00,8,20748990,201345
OK,40,49,766,40,2014-08-01T08:30:00,7,20749439,201345
OK,41,48,766,41,2014-08-01T08:35:00,6,20749888,201345
OK,38,51,766,38,2014-08-01T08:40:00,7,20750337,201345
OK,51,38,766,51,2014-08-01T08:45:00,3,20750786,201345
OK,48,41,766,48,2014-08-01T08:50:00,4,20751235,201345
OK,44,44,766,44,2014-08-01T08:55:00,6,20751684,201345
OK,54,36,766,54,2014-08-01T09:00:00,9,20752133,201345
OK,55,35,766,55,2014-08-01T09:05:00,7,20752582,201345
OK,56,35,766,56,2014-08-01T09:10:00,7,20753031,201345
OK,56,35,766,56,2014-08-01T09:15:00,9,20753480,201345
OK,48,41,766,48,2014-08-01T09:20:00,9,20753929,201345
OK,41,48,766,41,2014-08-01T09:25:00,3,20754378,201345
OK,47,41,766,47,2014-08-01T09:30:00,4,20754827,201345
OK,43,45,766,43,2014-08-01T09:35:00,5,20755276,201345
OK,57,34,766,57,2014-08-01T09:40:00,2,20755725,201345
OK,46,42,766,46,2014-08-01T09:45:00,10,20756174,201345
OK,49,40,766,49,2014-08-01T09:50:00,10,20756623,201345
OK,54,36,766,54,2014-08-01T09:55:00,10,20757072,201345
OK,55,35,766,55,2014-08-01T10:00:00,7,20757521,201345
OK,35,56,766,35,2014-08-01T10:05:00,1,20757970,201345
OK,60,32,766,60,2014-08-01T10:10:00,5,20758419,201345
OK,57,34,766,57,2014-08-01T10:15:00,2,20758868,201345
OK,47,41,766,47,2014-08-01T10:20:00,5,20759317,201345
OK,47,41,766,47,2014-08-01T10:25:00,6,20759766,201345
OK,54,36,766,54,2014-08-01T10:30:00,14,20760215,201345
OK,48,41,766,48,2014-08-01T10:35:00,9,20760664,201345
OK,38,51,766,38,2014-08-01T10:40:00,10,20761113,201345
OK,42,46,766,42,2014-08-01T10:45:00,10,20761562,201345
OK,44,44,766,44,2014-08-01T10:50:00,9,20762011,201345
OK,52,37,766,52,2014-08-01T10:55:00,4,20762460,201345
OK,49,40,766,49,2014-08-01T11:00:00,6,20762909,201345
OK,44,44,766,44,2014-08-01T11:05:00,6,20763358,201345
OK,44,44,766,44,2014-08-01T11:10:00,8,20763807,201345
OK,41,48,766,41,2014-08-01T11:15:00,7,20764256,201345
OK,44,44,766,44,2014-08-01T11:20:00,4,20764704,201345
OK,40,49,766,40,2014-08-01T11:25:00,10,20765153,201345
OK,40,49,766,40,2014-08-01T11:30:00,8,20765602,201345
OK,35,56,766,35,2014-08-01T11:35:00,5,20766051,201345
OK,36,54,766,36,2014-08-01T11:40:00,7,20766500,201345
OK,36,54,766,36,2014-08-01T11:45:00,5,20766949,201345
OK,34,57,766,34,2014-08-01T11:50:00,0,20767398,201345
OK,32,61,766,32,2014-08-01T11:55:00,2,20767847,201345
OK,35,56,766,35,2014-08-01T12:00:00,7,20768296,201345
OK,38,51,766,38,2014-08-01T12:05:00,8,20768745,201345
OK,41,48,766,41,2014-08-01T12:10:00,8,20769194,201345
OK,40,49,766,40,2014-08-01T12:15:00,5,20769643,201345
OK,36,54,766,36,2014-08-01T12:20:00,2,20770092,201345
OK,41,48,766,41,2014-08-01T12:25:00,6,20770541,201345
OK,38,51,766,38,2014-08-01T12:30:00,4,20770990,201345
OK,40,49,766,40,2014-08-01T12:35:00,3,20771439,201345
OK,44,44,766,44,2014-08-01T12:40:00,4,20771888,201345
OK,39,50,766,39,2014-08-01T12:45:00,5,20772337,201345
OK,39,50,766,39,2014-08-01T12:50:00,6,20772786,201345
OK,43,45,766,43,2014-08-01T12:55:00,4,20773235,201345
OK,43,45,766,43,2014-08-01T13:00:00,4,20773684,201345
OK,49,40,766,49,2014-08-01T13:05:00,3,20774133,201345
OK,55,35,766,55,2014-08-01T13:10:00,1,20774582,201345
OK,39,50,766,39,2014-08-01T13:15:00,1,20775031,201345
OK,39,50,766,39,2014-08-01T13:20:00,1,20775480,201345
OK,52,37,766,52,2014-08-01T13:25:00,1,20775929,201345
OK,50,39,766,50,2014-08-01T13:30:00,1,20776378,201345
OK,48,41,766,48,2014-08-01T13:35:00,2,20776827,201345
OK,47,41,766,47,2014-08-01T13:40:00,1,20777276,201345
OK,44,44,766,44,2014-08-01T13:45:00,2,20777725,201345
OK,41,48,766,41,2014-08-01T13:50:00,4,20778174,201345
OK,33,59,766,33,2014-08-01T13:55:00,5,20778623,201345
OK,56,35,766,56,2014-08-01T14:00:00,3,20779072,201345
OK,44,44,766,44,2014-08-01T14:05:00,0,20779521,201345
OK,37,53,766,37,2014-08-01T14:10:00,2,20779970,201345
OK,36,54,766,36,2014-08-01T14:15:00,5,20780419,201345
OK,51,38,766,51,2014-08-01T14:20:00,5,20780868,201345
OK,44,44,766,44,2014-08-01T14:25:00,5,20781317,201345
OK,38,51,766,38,2014-08-01T14:30:00,8,20781766,201345
OK,37,53,766,37,2014-08-01T14:35:00,4,20782215,201345
OK,35,56,766,35,2014-08-01T14:40:00,3,20782664,201345
OK,36,54,766,36,2014-08-01T14:45:00,5,20783113,201345
OK,37,53,766,37,2014-08-01T14:50:00,3,20783562,201345
OK,40,49,766,40,2014-08-01T14:55:00,2,20784011,201345
OK,43,45,766,43,2014-08-01T15:00:00,8,20784460,201345
OK,40,49,766,40,2014-08-01T15:05:00,6,20784909,201345
OK,47,41,766,47,2014-08-01T15:10:00,2,20785358,201345
OK,48,41,766,48,2014-08-01T15:15:00,2,20785807,201345
OK,56,35,766,56,2014-08-01T15:20:00,5,20786256,201345
OK,53,37,766,53,2014-08-01T15:25:00,9,20786705,201345
OK,40,49,766,40,2014-08-01T15:30:00,8,20787154,201345
OK,42,46,766,42,2014-08-01T15:35:00,11,20787603,201345
OK,43,45,766,43,2014-08-01T15:40:00,8,20788052,201345
OK,43,45,766,43,2014-08-01T15:45:00,6,20788501,201345
OK,43,45,766,43,2014-08-01T15:50:00,7,20788950,201345
OK,44,44,766,44,2014-08-01T15:55:00,5,20789399,201345
OK,49,40,766,49,2014-08-01T16:00:00,5,20789848,201345
OK,58,33,766,58,2014-08-01T16:05:00,5,20790297,201345
OK,56,35,766,56,2014-08-01T16:10:00,4,20790746,201345
OK,51,38,766,51,2014-08-01T16:15:00,6,20791195,201345
OK,51,38,766,51,2014-08-01T16:20:00,5,20791644,201345
OK,41,48,766,41,2014-08-01T16:25:00,2,20792093,201345
OK,33,59,766,33,2014-08-01T16:30:00,4,20792542,201345
OK,33,59,766,33,2014-08-01T16:35:00,3,20792991,201345
OK,33,59,766,33,2014-08-01T16:40:00,0,20793440,201345
OK,55,35,766,55,2014-08-01T16:45:00,2,20793889,201345
OK,49,40,766,49,2014-08-01T16:50:00,3,20794338,201345
OK,52,37,766,52,2014-08-01T16:55:00,2,20794787,201345
OK,34,57,766,34,2014-08-01T17:00:00,8,20795236,201345
OK,40,49,766,40,2014-08-01T17:05:00,8,20795685,201345
OK,44,44,766,44,2014-08-01T17:10:00,5,20796134,201345
OK,46,42,766,46,2014-08-01T17:15:00,5,20796583,201345
OK,80,24,766,80,2014-08-01T17:20:00,2,20797032,201345
OK,37,53,766,37,2014-08-01T17:25:00,2,20797481,201345
OK,36,54,766,36,2014-08-01T17:30:00,1,20797930,201345
OK,36,54,766,36,2014-08-01T17:35:00,0,20798379,201345
OK,46,42,766,46,2014-08-01T17:40:00,1,20798828,201345
OK,41,48,766,41,2014-08-01T17:45:00,4,20799277,201345
OK,41,48,766,41,2014-08-01T17:50:00,4,20799726,201345
OK,45,43,766,45,2014-08-01T17:55:00,2,20800175,201345
OK,38,51,766,38,2014-08-01T18:00:00,3,20800624,201345
OK,38,51,766,38,2014-08-01T18:05:00,5,20801073,201345
OK,39,50,766,39,2014-08-01T18:10:00,5,20801522,201345
OK,37,53,766,37,2014-08-01T18:15:00,6,20801971,201345
OK,36,54,766,36,2014-08-01T18:20:00,3,20802420,201345
OK,36,54,766,36,2014-08-01T18:25:00,0,20802869,201345
OK,45,43,766,45,2014-08-01T18:30:00,2,20803318,201345
OK,56,35,766,56,2014-08-01T18:35:00,1,20803767,201345
OK,56,35,766,56,2014-08-01T18:40:00,0,20804216,201345
OK,39,50,766,39,2014-08-01T18:45:00,2,20804665,201345
OK,48,41,766,48,2014-08-01T18:50:00,3,20805114,201345
OK,40,49,766,40,2014-08-01T18:55:00,3,20805563,201345
OK,40,49,766,40,2014-08-01T19:00:00,3,20806012,201345
OK,43,45,766,43,2014-08-01T19:05:00,0,20806461,201345
OK,36,54,766,36,2014-08-01T19:10:00,1,20806910,201345
OK,33,59,766,33,2014-08-01T19:15:00,2,20807359,201345
OK,33,59,766,33,2014-08-01T19:20:00,0,20807808,201345
OK,41,48,766,41,2014-08-01T19:25:00,1,20808257,201345
OK,37,53,766,37,2014-08-01T19:30:00,3,20808706,201345
OK,47,41,766,47,2014-08-01T19:35:00,5,20809155,201345
OK,57,34,766,57,2014-08-01T19:40:00,1,20809604,201345
OK,46,42,766,46,2014-08-01T19:45:00,1,20810053,201345
OK,36,54,766,36,2014-08-01T19:50:00,3,20810502,201345
OK,33,59,766,33,2014-08-01T19:55:00,3,20810951,201345
OK,37,53,766,37,2014-08-01T20:20:00,6,20812188,201345
OK,60,32,766,60,2014-08-01T21:20:00,1,20814737,201345
OK,38,51,766,38,2014-08-01T22:00:00,0,20816680,201345
OK,38,51,766,38,2014-08-01T22:05:00,0,20817129,201345
OK,31,63,766,31,2014-08-01T22:10:00,1,20817451,201345
OK,31,63,766,31,2014-08-01T22:15:00,1,20817880,201345
OK,31,63,766,31,2014-08-01T22:20:00,0,20818170,201345
OK,34,57,766,34,2014-08-01T22:25:00,1,20818486,201345
OK,34,57,766,34,2014-08-01T22:30:00,1,20818820,201345
OK,34,57,766,34,2014-08-01T22:40:00,0,20819304,201345
OK,31,63,766,31,2014-08-01T23:40:00,0,20822005,201345
OK,31,63,766,31,2014-08-01T23:45:00,0,20822228,201345
OK,31,63,766,31,2014-08-01T23:55:00,0,20822821,201345
OK,31,63,766,31,2014-08-02T00:00:00,0,20823119,201345
OK,31,63,766,31,2014-08-02T00:05:00,0,20823568,201345
OK,31,63,766,31,2014-08-02T00:10:00,0,20824017,201345
OK,31,63,766,31,2014-08-02T00:15:00,0,20824466,201345
OK,31,63,766,31,2014-08-02T00:20:00,0,20824915,201345
OK,31,63,766,31,2014-08-02T00:25:00,0,20825364,201345
OK,31,63,766,31,2014-08-02T00:30:00,0,20825813,201345
OK,35,56,766,35,2014-08-02T00:35:00,0,20826262,201345
OK,35,56,766,35,2014-08-02T00:40:00,0,20826711,201345
OK,28,70,766,28,2014-08-02T00:45:00,1,20827160,201345
OK,28,70,766,28,2014-08-02T00:50:00,0,20827609,201345
OK,28,70,766,28,2014-08-02T00:55:00,0,20828058,201345
OK,28,70,766,28,2014-08-02T01:00:00,0,20828507,201345
OK,28,70,766,28,2014-08-02T01:05:00,0,20828956,201345
OK,28,70,766,28,2014-08-02T01:10:00,0,20829405,201345
OK,28,70,766,28,2014-08-02T01:15:00,0,20829854,201345
OK,28,70,766,28,2014-08-02T01:20:00,0,20830303,201345
OK,28,70,766,28,2014-08-02T01:25:00,0,20830752,201345
OK,28,70,766,28,2014-08-02T01:30:00,0,20831201,201345
OK,28,70,766,28,2014-08-02T01:35:00,0,20831650,201345
OK,28,70,766,28,2014-08-02T01:40:00,0,20832099,201345
OK,28,70,766,28,2014-08-02T01:45:00,0,20832548,201345
OK,28,70,766,28,2014-08-02T01:50:00,0,20832997,201345
OK,28,70,766,28,2014-08-02T01:55:00,0,20833446,201345
OK,28,70,766,28,2014-08-02T02:00:00,0,20833895,201345
OK,28,70,766,28,2014-08-02T02:05:00,0,20834344,201345
OK,28,70,766,28,2014-08-02T02:10:00,0,20834793,201345
OK,28,70,766,28,2014-08-02T02:15:00,0,20835242,201345
OK,28,70,766,28,2014-08-02T02:20:00,0,20835691,201345
OK,28,70,766,28,2014-08-02T02:25:00,0,20836140,201345
OK,28,70,766,28,2014-08-02T02:30:00,0,20836589,201345
OK,28,70,766,28,2014-08-02T02:35:00,0,20837038,201345
OK,28,70,766,28,2014-08-02T02:40:00,0,20837487,201345
OK,28,70,766,28,2014-08-02T02:45:00,0,20837936,201345
OK,28,70,766,28,2014-08-02T02:50:00,0,20838385,201345
OK,28,70,766,28,2014-08-02T02:55:00,0,20838834,201345
OK,28,70,766,28,2014-08-02T03:00:00,0,20839283,201345
OK,28,70,766,28,2014-08-02T03:05:00,0,20839732,201345
OK,28,70,766,28,2014-08-02T03:10:00,0,20840181,201345
OK,28,70,766,28,2014-08-02T03:15:00,0,20840630,201345
OK,28,70,766,28,2014-08-02T03:20:00,0,20841079,201345
OK,28,70,766,28,2014-08-02T03:25:00,0,20841528,201345
OK,28,70,766,28,2014-08-02T03:30:00,0,20841977,201345
OK,28,70,766,28,2014-08-02T03:35:00,0,20842426,201345
OK,28,70,766,28,2014-08-02T03:40:00,0,20842875,201345
OK,28,70,766,28,2014-08-02T03:45:00,0,20843324,201345
OK,28,70,766,28,2014-08-02T03:50:00,0,20843773,201345
OK,28,70,766,28,2014-08-02T03:55:00,0,20844222,201345
OK,28,70,766,28,2014-08-02T04:05:00,0,20844802,201345
OK,28,70,766,28,2014-08-02T04:10:00,0,20845132,201345
OK,28,70,766,28,2014-08-02T04:15:00,0,20845312,201345
OK,28,70,766,28,2014-08-02T04:20:00,0,20845668,201345
OK,28,70,766,28,2014-08-02T04:30:00,0,20846224,201345
OK,28,70,766,28,2014-08-02T04:35:00,0,20846591,201345
OK,28,70,766,28,2014-08-02T04:40:00,0,20846974,201345
OK,36,54,766,36,2014-08-02T04:45:00,1,20847233,201345
OK,36,54,766,36,2014-08-02T04:50:00,0,20847599,201345
OK,49,40,766,49,2014-08-02T05:00:00,1,20848315,201345
OK,49,40,766,49,2014-08-02T05:10:00,0,20848833,201345
OK,31,63,766,31,2014-08-02T05:15:00,1,20849026,201345
OK,31,63,766,31,2014-08-02T05:20:00,1,20849370,201345
OK,55,35,766,55,2014-08-02T05:40:00,0,20850460,201345
OK,54,36,766,54,2014-08-02T05:45:00,3,20850761,201345
OK,51,38,766,51,2014-08-02T05:50:00,3,20851119,201345
OK,51,38,766,51,2014-08-02T05:55:00,0,20851373,201345
OK,28,70,766,28,2014-08-02T06:00:00,1,20851676,201345
OK,68,28,766,68,2014-08-02T06:05:00,1,20852125,201345
OK,68,28,766,68,2014-08-02T06:10:00,1,20852574,201345
OK,68,28,766,68,2014-08-02T06:15:00,0,20853023,201345
OK,68,28,766,68,2014-08-02T06:20:00,0,20853472,201345
OK,32,61,766,32,2014-08-02T06:25:00,2,20853921,201345
OK,33,59,766,33,2014-08-02T06:30:00,2,20854370,201345
OK,33,59,766,33,2014-08-02T06:35:00,1,20854819,201345
OK,33,59,766,33,2014-08-02T06:40:00,0,20855268,201345
OK,39,50,766,39,2014-08-02T06:45:00,1,20855717,201345
OK,42,46,766,42,2014-08-02T06:50:00,2,20856166,201345
OK,33,59,766,33,2014-08-02T06:55:00,2,20856615,201345
OK,29,67,766,29,2014-08-02T07:00:00,1,20857064,201345
OK,29,67,766,29,2014-08-02T07:05:00,0,20857513,201345
OK,39,50,766,39,2014-08-02T07:10:00,4,20857962,201345
OK,40,49,766,40,2014-08-02T07:15:00,5,20858411,201345
OK,52,37,766,52,2014-08-02T07:20:00,3,20858860,201345
OK,52,37,766,52,2014-08-02T07:25:00,5,20859309,201345
OK,39,50,766,39,2014-08-02T07:30:00,3,20859758,201345
OK,46,42,766,46,2014-08-02T07:35:00,1,20860207,201345
OK,46,42,766,46,2014-08-02T07:40:00,3,20860656,201345
OK,42,46,766,42,2014-08-02T07:45:00,4,20861105,201345
OK,56,35,766,56,2014-08-02T07:50:00,8,20861554,201345
OK,47,41,766,47,2014-08-02T07:55:00,8,20862003,201345
OK,43,45,766,43,2014-08-02T08:00:00,9,20862452,201345
OK,43,45,766,43,2014-08-02T08:05:00,8,20862901,201345
OK,38,51,766,38,2014-08-02T08:10:00,3,20863350,201345
OK,39,50,766,39,2014-08-02T08:15:00,4,20863799,201345
OK,48,41,766,48,2014-08-02T08:20:00,6,20864248,201345
OK,55,35,766,55,2014-08-02T08:25:00,7,20864697,201345
OK,51,38,766,51,2014-08-02T08:30:00,9,20865146,201345
OK,57,34,766,57,2014-08-02T08:35:00,6,20865595,201345
OK,52,37,766,52,2014-08-02T08:40:00,7,20866044,201345
OK,41,48,766,41,2014-08-02T08:45:00,6,20866493,201345
OK,48,41,766,48,2014-08-02T08:50:00,4,20866942,201345
OK,50,39,766,50,2014-08-02T08:55:00,4,20867391,201345
OK,52,37,766,52,2014-08-02T09:00:00,5,20867840,201345
OK,57,34,766,57,2014-08-02T09:05:00,8,20868289,201345
OK,48,41,766,48,2014-08-02T09:10:00,8,20868738,201345
OK,50,39,766,50,2014-08-02T09:15:00,7,20869187,201345
OK,45,43,766,45,2014-08-02T09:20:00,4,20869636,201345
OK,53,37,766,53,2014-08-02T09:25:00,2,20870085,201345
OK,34,57,766,34,2014-08-02T09:30:00,4,20870534,201345
OK,35,56,766,35,2014-08-02T09:35:00,6,20870983,201345
OK,35,56,766,35,2014-08-02T09:40:00,3,20871432,201345
OK,58,33,766,58,2014-08-02T09:45:00,6,20871881,201345
OK,39,50,766,39,2014-08-02T09:50:00,6,20872330,201345
OK,48,41,766,48,2014-08-02T09:55:00,6,20872779,201345
OK,56,35,766,56,2014-08-02T10:00:00,5,20873228,201345
OK,45,43,766,45,2014-08-02T10:05:00,5,20873677,201345
OK,41,48,766,41,2014-08-02T10:10:00,5,20874126,201345
OK,52,37,766,52,2014-08-02T10:15:00,4,20874575,201345
OK,53,37,766,53,2014-08-02T10:20:00,8,20875024,201345
OK,46,42,766,46,2014-08-02T10:25:00,5,20875473,201345
OK,37,53,766,37,2014-08-02T10:30:00,3,20875922,201345
OK,37,53,766,37,2014-08-02T10:35:00,5,20876371,201345
OK,49,40,766,49,2014-08-02T10:40:00,5,20876820,201345
OK,47,41,766,47,2014-08-02T10:45:00,6,20877269,201345
OK,43,45,766,43,2014-08-02T10:50:00,8,20877718,201345
OK,35,56,766,35,2014-08-02T10:55:00,7,20878167,201345
OK,37,53,766,37,2014-08-02T11:00:00,3,20878616,201345
OK,37,53,766,37,2014-08-02T11:05:00,4,20879065,201345
OK,37,53,766,37,2014-08-02T11:10:00,3,20879514,201345
OK,54,36,766,54,2014-08-02T11:15:00,2,20879963,201345
OK,42,46,766,42,2014-08-02T11:20:00,3,20880412,201345
OK,42,46,766,42,2014-08-02T11:25:00,7,20880861,201345
OK,39,50,766,39,2014-08-02T11:30:00,5,20881310,201345
OK,35,56,766,35,2014-08-02T11:35:00,2,20881759,201345
OK,43,45,766,43,2014-08-02T11:40:00,4,20882208,201345
OK,47,41,766,47,2014-08-02T11:45:00,7,20882657,201345
OK,43,45,766,43,2014-08-02T11:50:00,5,20883106,201345
OK,34,57,766,34,2014-08-02T11:55:00,6,20883555,201345
OK,33,59,766,33,2014-08-02T12:00:00,6,20884004,201345
OK,35,56,766,35,2014-08-02T12:05:00,7,20884453,201345
OK,35,56,766,35,2014-08-02T12:10:00,3,20884902,201345
OK,52,37,766,52,2014-08-02T12:15:00,1,20885351,201345
OK,63,31,766,63,2014-08-02T12:20:00,2,20885800,201345
OK,61,32,766,61,2014-08-02T12:25:00,4,20886249,201345
OK,52,37,766,52,2014-08-02T12:30:00,4,20886698,201345
OK,43,45,766,43,2014-08-02T12:35:00,5,20887147,201345
OK,37,53,766,37,2014-08-02T12:40:00,8,20887596,201345
OK,36,54,766,36,2014-08-02T12:45:00,6,20888045,201345
OK,44,44,766,44,2014-08-02T12:50:00,3,20888494,201345
OK,47,41,766,47,2014-08-02T12:55:00,6,20888943,201345
OK,42,46,766,42,2014-08-02T13:00:00,9,20889392,201345
OK,43,45,766,43,2014-08-02T13:05:00,10,20889841,201345
OK,46,42,766,46,2014-08-02T13:10:00,4,20890290,201345
OK,30,65,766,30,2014-08-02T13:15:00,1,20890739,201345
OK,45,43,766,45,2014-08-02T13:20:00,6,20891188,201345
OK,35,56,766,35,2014-08-02T13:25:00,6,20891637,201345
OK,42,46,766,42,2014-08-02T13:30:00,4,20892086,201345
OK,42,46,766,42,2014-08-02T13:35:00,3,20892535,201345
OK,47,41,766,47,2014-08-02T13:40:00,3,20892984,201345
OK,49,40,766,49,2014-08-02T13:45:00,4,20893433,201345
OK,49,40,766,49,2014-08-02T13:50:00,6,20893882,201345
OK,42,46,766,42,2014-08-02T13:55:00,6,20894331,201345
OK,42,46,766,42,2014-08-02T14:00:00,3,20894780,201345
OK,41,48,766,41,2014-08-02T14:05:00,4,20895229,201345
OK,53,37,766,53,2014-08-02T14:10:00,7,20895678,201345
OK,55,35,766,55,2014-08-02T14:15:00,12,20896127,201345
OK,54,36,766,54,2014-08-02T14:20:00,13,20896576,201345
OK,53,37,766,53,2014-08-02T14:25:00,15,20897025,201345
OK,55,35,766,55,2014-08-02T14:30:00,7,20897474,201345
OK,45,43,766,45,2014-08-02T14:35:00,2,20897923,201345
OK,61,32,766,61,2014-08-02T14:40:00,3,20898372,201345
OK,57,34,766,57,2014-08-02T14:45:00,9,20898821,201345
OK,55,35,766,55,2014-08-02T14:50:00,7,20899270,201345
OK,53,37,766,53,2014-08-02T14:55:00,8,20899719,201345
OK,52,37,766,52,2014-08-02T15:00:00,9,20900168,201345
OK,60,32,766,60,2014-08-02T15:05:00,11,20900617,201345
OK,65,30,766,65,2014-08-02T15:10:00,9,20901066,201345
OK,60,32,766,60,2014-08-02T15:15:00,7,20901515,201345
OK,53,37,766,53,2014-08-02T15:20:00,7,20901964,201345
OK,59,33,766,59,2014-08-02T15:25:00,8,20902413,201345
OK,68,28,766,68,2014-08-02T15:30:00,6,20902862,201345
OK,46,42,766,46,2014-08-02T15:35:00,5,20903311,201345
OK,52,37,766,52,2014-08-02T15:40:00,7,20903760,201345
OK,52,37,766,52,2014-08-02T15:45:00,5,20904209,201345
OK,50,39,766,50,2014-08-02T15:50:00,6,20904658,201345
OK,51,38,766,51,2014-08-02T15:55:00,7,20905107,201345
OK,54,36,766,54,2014-08-02T16:00:00,6,20905556,201345
OK,50,39,766,50,2014-08-02T16:05:00,3,20906005,201345
OK,52,37,766,52,2014-08-02T16:10:00,6,20906454,201345
OK,58,33,766,58,2014-08-02T16:15:00,6,20906903,201345
OK,62,31,766,62,2014-08-02T16:20:00,7,20907352,201345
OK,60,32,766,60,2014-08-02T16:25:00,9,20907801,201345
OK,47,41,766,47,2014-08-02T16:30:00,6,20908250,201345
OK,32,61,766,32,2014-08-02T16:35:00,2,20908699,201345
OK,17,115,766,17,2014-08-02T16:40:00,1,20909148,201345
OK,46,42,766,46,2014-08-02T16:45:00,3,20909597,201345
OK,43,45,766,43,2014-08-02T16:50:00,6,20910046,201345
OK,44,44,766,44,2014-08-02T16:55:00,3,20910495,201345
OK,41,48,766,41,2014-08-02T17:00:00,2,20910944,201345
OK,34,57,766,34,2014-08-02T17:05:00,2,20911393,201345
OK,39,50,766,39,2014-08-02T17:10:00,1,20911842,201345
OK,40,49,766,40,2014-08-02T17:15:00,1,20912291,201345
OK,36,54,766,36,2014-08-02T17:20:00,2,20912740,201345
OK,46,42,766,46,2014-08-02T17:25:00,4,20913189,201345
OK,46,42,766,46,2014-08-02T17:30:00,8,20913638,201345
OK,38,51,766,38,2014-08-02T17:35:00,5,20914087,201345
OK,45,43,766,45,2014-08-02T17:40:00,1,20914536,201345
OK,42,46,766,42,2014-08-02T17:45:00,3,20914985,201345
OK,33,59,766,33,2014-08-02T17:50:00,2,20915434,201345
OK,47,41,766,47,2014-08-02T17:55:00,4,20915883,201345
OK,43,45,766,43,2014-08-02T18:00:00,9,20916332,201345
OK,38,51,766,38,2014-08-02T18:05:00,7,20916781,201345
OK,57,34,766,57,2014-08-02T18:10:00,4,20917230,201345
OK,55,35,766,55,2014-08-02T18:15:00,2,20917679,201345
OK,45,43,766,45,2014-08-02T18:20:00,4,20918128,201345
OK,40,49,766,40,2014-08-02T18:25:00,5,20918577,201345
OK,37,53,766,37,2014-08-02T18:30:00,0,20919026,201345
OK,53,37,766,53,2014-08-02T18:35:00,1,20919475,201345
OK,53,37,766,53,2014-08-02T18:40:00,1,20919924,201345
OK,63,31,766,63,2014-08-02T18:45:00,1,20920373,201345
OK,51,38,766,51,2014-08-02T18:50:00,2,20920822,201345
OK,57,34,766,57,2014-08-02T18:55:00,3,20921271,201345
OK,43,45,766,43,2014-08-02T19:00:00,2,20921720,201345
OK,57,34,766,57,2014-08-02T19:05:00,0,20922169,201345
OK,35,56,766,35,2014-08-02T19:10:00,1,20922618,201345
OK,35,56,766,35,2014-08-02T19:15:00,1,20923067,201345
OK,35,56,766,35,2014-08-02T19:20:00,0,20923516,201345
OK,35,56,766,35,2014-08-02T19:25:00,0,20923965,201345
OK,47,41,766,47,2014-08-02T19:30:00,2,20924414,201345
OK,47,41,766,47,2014-08-02T19:35:00,2,20924863,201345
OK,37,53,766,37,2014-08-02T19:40:00,3,20925312,201345
OK,36,54,766,36,2014-08-02T19:45:00,2,20925761,201345
OK,37,53,766,37,2014-08-02T19:50:00,0,20926210,201345
OK,63,31,766,63,2014-08-02T19:55:00,1,20926659,201345
OK,46,42,766,46,2014-08-02T20:00:00,2,20927108,201345
OK,32,61,766,32,2014-08-02T20:05:00,2,20927557,201345
OK,35,56,766,35,2014-08-02T20:10:00,0,20928006,201345
OK,35,56,766,35,2014-08-02T20:15:00,0,20928455,201345
OK,35,56,766,35,2014-08-02T20:20:00,0,20928904,201345
OK,43,45,766,43,2014-08-02T20:25:00,2,20929353,201345
OK,32,61,766,32,2014-08-02T20:30:00,3,20929802,201345
OK,32,61,766,32,2014-08-02T20:35:00,3,20930251,201345
OK,44,44,766,44,2014-08-02T20:40:00,4,20930700,201345
OK,53,37,766,53,2014-08-02T20:45:00,3,20931149,201345
OK,58,33,766,58,2014-08-02T20:50:00,1,20931598,201345
OK,61,32,766,61,2014-08-02T20:55:00,1,20932047,201345
OK,61,32,766,61,2014-08-02T21:00:00,1,20932496,201345
OK,36,54,766,36,2014-08-02T21:05:00,1,20932945,201345
OK,36,54,766,36,2014-08-02T21:10:00,0,20933394,201345
OK,36,54,766,36,2014-08-02T21:15:00,0,20933843,201345
OK,36,54,766,36,2014-08-02T21:20:00,0,20934292,201345
OK,38,51,766,38,2014-08-02T21:25:00,1,20934741,201345
OK,47,41,766,47,2014-08-02T21:30:00,2,20935190,201345
OK,56,35,766,56,2014-08-02T21:35:00,1,20935639,201345
OK,56,35,766,56,2014-08-02T21:40:00,0,20936088,201345
OK,49,40,766,49,2014-08-02T21:45:00,0,20936537,201345
OK,28,70,766,28,2014-08-02T21:50:00,1,20936986,201345
OK,28,70,766,28,2014-08-02T21:55:00,0,20937435,201345
OK,28,70,766,28,2014-08-02T22:00:00,0,20937884,201345
OK,28,70,766,28,2014-08-02T22:05:00,0,20938333,201345
OK,28,70,766,28,2014-08-02T22:10:00,0,20938782,201345
OK,28,70,766,28,2014-08-02T22:15:00,0,20939231,201345
OK,33,59,766,33,2014-08-02T22:20:00,1,20939680,201345
OK,33,59,766,33,2014-08-02T22:25:00,0,20940129,201345
OK,33,59,766,33,2014-08-02T22:30:00,0,20940578,201345
OK,31,63,766,31,2014-08-02T22:35:00,1,20941027,201345
OK,31,63,766,31,2014-08-02T22:40:00,1,20941476,201345
OK,31,63,766,31,2014-08-02T22:45:00,0,20941925,201345
OK,33,59,766,33,2014-08-02T22:50:00,1,20942374,201345
OK,33,59,766,33,2014-08-02T22:55:00,1,20942823,201345
OK,33,59,766,33,2014-08-02T23:00:00,0,20943272,201345
OK,37,53,766,37,2014-08-02T23:10:00,1,20943721,201345
OK,37,53,766,37,2014-08-02T23:15:00,0,20944170,201345
OK,38,51,766,38,2014-08-02T23:20:00,2,20944619,201345
OK,35,56,766,35,2014-08-02T23:25:00,2,20945068,201345
OK,37,53,766,37,2014-08-02T23:30:00,1,20945517,201345
OK,37,53,766,37,2014-08-02T23:35:00,0,20945966,201345